Weather reports worldwide

Advertisment
Cannes, France (7684): temperature & dewpoint: 11.08.2018 01:00:00 - 17.08.2018 01:00:00 (CEST)Cannes, France (7684): temperature 5cm: 11.08.2018 01:00:00 - 17.08.2018 01:00:00 (CEST)Cannes, France (7684): wind speed & gusts: 11.08.2018 01:00:00 - 17.08.2018 01:00:00 (CEST)Cannes, France (7684): wind direction: 11.08.2018 01:00:00 - 17.08.2018 01:00:00 (CEST)Cannes, France (7684): reduced air pressure: 11.08.2018 01:00:00 - 17.08.2018 01:00:00 (CEST)Cannes, France (7684): visibility: 11.08.2018 01:00:00 - 17.08.2018 01:00:00 (CEST)Cannes, France (7684): precipitation: 11.08.2018 01:00:00 - 17.08.2018 01:00:00 (CEST)
Date & Time tt [°C] td [°C] tt 5cm [°C] ff [km/h] ff [kn] fx [km/h] fx [kn] dd ppp [hPa] vv [km] rr [mm]
17.08.2018 01:00:00 23,9 16,2 22,6 5 3 11 6 NNE 1014,2 57 0,0
17.08.2018 00:00:00 24,7 15,9 23,3 4 2 8 4 N 1014,4 60 0,0
16.08.2018 23:00:00 24,7 16,1 23,4 6 3 9 5 N 1014,5 60 0,0
16.08.2018 22:00:00 25,2 16,1 23,9 4 2 9 5 N 1014,3 60 0,0
16.08.2018 21:00:00 27,4 16,7 25,2 4 2 5 3 NE 1013,8 60 0,0
16.08.2018 20:00:00 28,5 14,3 27,4 4 2 18 10 W 1013,6 60 0,0
16.08.2018 19:00:00 29,0 13,6 28,9 11 6 22 12 SSW 1013,5 60 0,0
16.08.2018 18:00:00 28,8 18,0 30,9 13 7 23 12 SSE 1013,8 60 0,0
16.08.2018 17:00:00 29,7 17,5 36,0 13 7 23 12 SSE 1014,1 60 0,0
16.08.2018 16:00:00 29,3 19,3 36,3 13 7 25 13 SSE 1014,5 51 0,0
16.08.2018 15:00:00 29,3 17,8 37,1 15 8 21 11 S 1015,2 57 0,0
16.08.2018 14:00:00 29,8 14,4 37,4 11 6 17 9 SSE 1015,8 60 0,0
16.08.2018 13:00:00 29,7 16,1 34,5 10 5 19 10 S 1016,1 60 0,0
16.08.2018 12:00:00 29,6 14,6 37,7 14 8 20 11 S 1016,4 60 0,0
16.08.2018 11:00:00 29,5 13,7 34,1 9 5 15 8 S 1016,3 20 0,0
16.08.2018 10:00:00 28,2 15,8 31,2 2 1 14 8 NW 1016,0 60 0,0
16.08.2018 09:00:00 23,8 16,1 24,2 9 5 17 9 N 1016,0 60 0,0
16.08.2018 08:00:00 20,5 15,5 17,9 9 5 16 9 N 1016,0 60 0,0
16.08.2018 07:00:00 18,6 14,9 17,4 9 5 14 8 N 1016,0 60 0,0
16.08.2018 06:00:00 18,5 14,8 17,3 8 4 13 7 N 1015,8 60 0,0
16.08.2018 05:00:00 18,9 15,0 17,7 7 4 14 8 N 1015,8 60 0,0
16.08.2018 04:00:00 19,2 14,9 17,7 9 5 13 7 N 1016,0 60 0,0
16.08.2018 03:00:00 19,8 15,0 18,3 7 4 12 7 N 1016,1 60 0,0
16.08.2018 02:00:00 20,8 15,1 19,2 5 3 11 6 NNE 1016,2 60 0,0
16.08.2018 01:00:00 21,7 15,1 19,8 7 4 12 6 N 1016,1 60 0,0
16.08.2018 00:00:00 22,3 15,4 20,0 5 3 10 5 N 1016,1 60 0,0
15.08.2018 23:00:00 22,7 15,3 20,5 4 2 11 6 NNW 1016,0 60 0,0
15.08.2018 22:00:00 23,5 15,3 21,6 4 2 12 6 NW 1016,1 60 0,0
15.08.2018 21:00:00 25,3 15,0 22,9 5 3 8 5 N 1015,6 60 0,0
15.08.2018 20:00:00 27,8 13,0 27,1 5 3 11 6 S 1015,3 60 0,0
15.08.2018 19:00:00 28,9 14,7 34,1 7 4 19 10 S 1015,3 54 0,0
15.08.2018 18:00:00 29,3 15,8 35,3 10 5 18 10 S 1015,5 53 0,0
15.08.2018 17:00:00 29,7 15,4 36,8 9 5 21 11 S 1015,3 60 0,0
15.08.2018 16:00:00 29,9 14,0 36,9 13 7 25 14 SSE 1015,2 60 0,0
15.08.2018 15:00:00 30,2 16,2 37,4 16 9 27 15 S 1015,3 19 0,0
15.08.2018 14:00:00 29,7 17,8 33,6 19 10 26 14 S 1015,4 60 0,0
15.08.2018 13:00:00 30,4 14,5 36,1 14 8 21 11 SSE 1015,3 60 0,0
15.08.2018 12:00:00 30,0 18,4 35,3 11 6 16 9 S 1015,3 60 0,0
15.08.2018 11:00:00 28,7 18,8 31,6 5 3 14 8 SE 1015,3 60 0,0
15.08.2018 10:00:00 26,0 17,9 31,1 5 3 10 5 N 1014,9 60 0,0
15.08.2018 09:00:00 23,4 16,9 25,2 5 3 14 7 N 1015,0 56 0,0
15.08.2018 08:00:00 20,5 16,3 17,9 8 5 15 8 N 1014,8 57 0,0
15.08.2018 07:00:00 18,4 15,8 17,3 6 4 12 6 N 1014,5 60 0,0
15.08.2018 06:00:00 18,5 15,7 17,5 7 4 18 10 N 1014,2 60 0,0
15.08.2018 05:00:00 18,5 15,7 17,5 8 4 16 9 N 1014,3 60 0,0
15.08.2018 04:00:00 18,3 15,9 17,6 7 4 16 9 N 1014,2 60 0,0
15.08.2018 03:00:00 18,5 15,7 17,7 9 5 16 9 N 1014,1 60 0,0
15.08.2018 02:00:00 18,7 16,3 18,0 9 5 17 9 N 1014,0 60 0,0
15.08.2018 01:00:00 18,9 16,5 18,1 7 4 14 7 N 1013,7 60 0,0
15.08.2018 00:00:00 19,4 17,0 18,6 9 5 16 9 N 1013,1 60 0,0
14.08.2018 23:00:00 20,4 17,6 19,5 9 5 15 8 NNE 1013,0 60 0,0
14.08.2018 22:00:00 21,0 18,6 20,2 8 5 14 8 N 1012,5 60 0,0
14.08.2018 21:00:00 22,5 20,4 21,4 5 3 12 6 NNW 1011,7 43 0,0
14.08.2018 20:00:00 24,1 20,0 23,1 4 2 12 6 NNW 1011,3 60 0,0
14.08.2018 19:00:00 24,2 20,5 22,9 6 3 15 8 N 1011,7 30 0,0
14.08.2018 18:00:00 25,5 20,1 24,4 9 5 26 14 NE 1011,7 20 0,0
14.08.2018 17:00:00 27,8 19,6 30,1 15 8 29 16 SE 1010,2 20 0,0
14.08.2018 16:00:00 28,0 20,0 34,0 16 9 29 15 SE 1010,0 20 0,0
14.08.2018 15:00:00 27,9 21,0 35,1 16 9 27 15 SSE 1010,2 55 0,0
14.08.2018 14:00:00 28,4 19,6 35,9 10 6 21 11 SSE 1010,3 20 0,0
14.08.2018 13:00:00 28,0 19,2 36,4 13 7 20 11 S 1010,6 19 0,0
14.08.2018 12:00:00 27,6 19,4 34,8 9 5 17 9 SSW 1010,9 60 0,0
14.08.2018 11:00:00 27,3 17,2 30,6 4 2 14 8 WSW 1010,8 60 0,0
14.08.2018 10:00:00 26,0 14,8 31,4 3 1 6 4 N 1010,4 51 0,0
14.08.2018 09:00:00 24,2 15,4 24,4 3 2 8 4 NNW 1010,6 60 0,0
14.08.2018 08:00:00 21,8 15,9 16,8 4 2 10 5 NNW 1010,1 60 0,0
14.08.2018 07:00:00 19,2 16,6 16,2 0 0 8 4 N 1009,4 59 0,0
14.08.2018 06:00:00 19,3 17,3 17,1 4 2 9 5 N 1009,4 44 0,0
14.08.2018 05:00:00 19,8 18,3 17,5 0 0 6 3 N 1009,6 30 0,0
14.08.2018 04:00:00 20,8 18,6 19,2 6 4 11 6 N 1010,1 43 0,0
14.08.2018 03:00:00 20,9 19,2 18,9 2 1 7 4 NNE 1010,3 28 0,0
14.08.2018 02:00:00 21,4 19,9 19,3 3 2 6 3 NNW 1010,4 19 0,0
14.08.2018 01:00:00 22,3 20,0 20,8 0 0 6 3 N 1011,0 30 0,0
14.08.2018 00:00:00 22,4 20,5 20,2 5 3 13 7 NNW 1011,2 29 0,0
13.08.2018 23:00:00 23,0 20,5 21,2 2 1 8 4 WNW 1011,0 30 0,0
13.08.2018 22:00:00 24,1 20,6 23,0 7 4 12 7 S 1011,4 41 0,0
13.08.2018 21:00:00 24,7 20,4 23,4 4 2 16 9 S 1011,0 19 0,0
13.08.2018 20:00:00 26,0 20,6 25,9 13 7 24 13 SSW 1010,8 58 0,0
13.08.2018 19:00:00 27,4 20,2 30,4 13 7 26 14 SW 1011,0 59 0,0
13.08.2018 18:00:00 27,5 19,8 31,3 18 10 29 16 SW 1011,4 46 0,0
13.08.2018 17:00:00 27,7 19,8 32,8 18 10 30 16 SSW 1012,2 53 0,0
13.08.2018 16:00:00 27,5 19,3 32,1 18 10 26 14 S 1012,7 20 0,0
13.08.2018 15:00:00 24,9 18,8 32,0 13 7 21 12 SSE 1013,5 60 0,0
13.08.2018 14:00:00 24,9 18,8 28,1 4 2 11 6 SSE 1014,0 20 0,0
13.08.2018 13:00:00 22,3 18,7 21,1 7 4 14 8 NNW 1014,7 53 0,0
13.08.2018 12:00:00 19,9 18,9 18,8 6 4 14 7 N 1014,9 20 1,5
13.08.2018 11:00:00 19,4 17,5 18,7 8 4 11 6 S 1015,3 13 3,0
13.08.2018 10:00:00 19,1 17,6 18,3 3 2 19 11 S 1014,4 15 1,4
13.08.2018 09:00:00 18,9 17,2 18,0 15 8 59 32 N 1014,9 7 7,4
13.08.2018 08:00:00 21,1 17,5 20,0 5 3 12 7 N 1014,5 54 0,0
13.08.2018 07:00:00 20,0 17,2 18,6 6 4 11 6 NNE 1013,3 37 0,0
13.08.2018 06:00:00 19,9 17,1 19,0 6 3 17 9 NNE 1013,1 48 0,0
13.08.2018 05:00:00 20,1 17,7 19,0 9 5 16 9 N 1013,5 46 0,0
13.08.2018 04:00:00 20,1 17,7 19,0 6 3 12 6 N 1014,4 46 0,0
13.08.2018 03:00:00 20,6 17,8 19,0 5 3 13 7 N 1014,2 54 0,0
13.08.2018 02:00:00 21,1 18,1 19,7 8 4 14 8 NNE 1014,5 56 0,0
13.08.2018 01:00:00 21,5 18,3 19,9 5 3 9 5 N 1014,7 59 0,0
13.08.2018 00:00:00 21,9 18,3 20,5 5 3 10 5 N 1015,0 60 0,0
12.08.2018 23:00:00 23,2 18,9 21,7 6 4 11 6 NNE 1016,0 60 0,0
12.08.2018 22:00:00 24,0 19,1 21,1 4 2 6 4 N 1015,8 50 0,0
12.08.2018 21:00:00 25,8 19,0 23,7 4 2 11 6 SSE 1015,0 60 0,0
12.08.2018 20:00:00 26,3 20,2 26,0 8 5 17 9 SSE 1014,8 60 0,0
12.08.2018 19:00:00 27,4 21,4 31,4 13 7 20 11 S 1014,9 41 0,0
12.08.2018 18:00:00 28,3 20,1 34,1 12 7 23 13 SSE 1015,4 60 0,0
12.08.2018 17:00:00 28,0 22,0 34,7 15 8 23 12 SSE 1015,7 53 0,0
12.08.2018 16:00:00 28,8 21,8 36,0 13 7 24 13 SSE 1016,3 51 0,0
12.08.2018 15:00:00 29,0 22,7 36,3 14 8 23 12 S 1016,9 52 0,0
12.08.2018 14:00:00 28,4 21,7 36,6 15 8 24 13 S 1017,2 20 0,0
12.08.2018 13:00:00 28,5 20,5 36,4 14 8 21 12 SSE 1017,5 49 0,0
12.08.2018 12:00:00 28,7 21,0 35,5 11 6 19 11 SSE 1017,8 20 0,0
12.08.2018 11:00:00 28,1 20,6 32,7 11 6 17 9 SSE 1017,7 41 0,0
12.08.2018 10:00:00 27,6 19,4 33,4 3 2 10 5 WNW 1017,6 60 0,0
12.08.2018 09:00:00 24,6 17,8 26,6 6 4 16 9 N 1017,5 57 0,0
12.08.2018 08:00:00 21,6 16,5 19,0 8 4 17 9 N 1017,3 48 0,0
12.08.2018 07:00:00 19,6 16,1 18,5 9 5 16 8 N 1017,1 60 0,0
12.08.2018 06:00:00 19,7 16,2 18,7 8 4 17 9 N 1016,8 60 0,0
12.08.2018 05:00:00 19,8 16,6 18,4 8 5 17 9 N 1016,8 57 0,0
12.08.2018 04:00:00 19,6 17,0 18,4 8 5 13 7 N 1017,0 50 0,0
12.08.2018 03:00:00 19,8 17,0 18,7 8 4 13 7 N 1017,0 49 0,0
12.08.2018 02:00:00 20,2 17,4 19,1 8 4 12 7 N 1017,0 48 0,0
12.08.2018 01:00:00 20,8 17,6 19,4 5 3 11 6 N 1017,3 51 0,0
12.08.2018 00:00:00 21,6 17,6 19,9 7 4 11 6 N 1017,4 48 0,0
11.08.2018 23:00:00 22,4 17,7 20,7 4 2 12 7 N 1017,3 60 0,0
11.08.2018 22:00:00 23,6 17,8 21,8 6 4 11 6 N 1017,0 60 0,0
11.08.2018 21:00:00 25,5 17,7 22,4 0 0 5 3 N 1016,5 54 0,0
11.08.2018 20:00:00 27,1 17,0 26,2 3 1 10 6 SSE 1016,4 60 0,0
11.08.2018 19:00:00 27,8 15,8 29,2 8 5 16 9 S 1016,5 60 0,0
11.08.2018 18:00:00 28,8 17,3 35,9 11 6 16 9 S 1016,6 60 0,0
11.08.2018 17:00:00 30,0 16,8 37,8 8 5 15 8 SSE 1016,8 56 0,0
11.08.2018 16:00:00 30,1 15,8 38,1 8 5 22 12 SSE 1017,4 20 0,0
11.08.2018 15:00:00 30,0 15,7 38,5 13 7 18 10 S 1018,0 60 0,0
11.08.2018 14:00:00 30,0 18,1 38,1 11 6 18 10 SSE 1018,1 60 0,0
11.08.2018 13:00:00 30,1 17,5 38,0 12 6 19 10 S 1018,4 59 0,0
11.08.2018 12:00:00 29,6 17,4 37,7 9 5 16 9 S 1018,6 60 0,0
11.08.2018 11:00:00 28,7 16,9 32,4 4 2 10 6 S 1018,6 60 0,0
11.08.2018 10:00:00 26,2 15,3 29,6 6 3 13 7 N 1018,5 60 0,0
11.08.2018 09:00:00 22,1 13,2 24,2 6 4 16 8 N 1018,6 20 0,0
11.08.2018 08:00:00 18,9 12,4 15,2 8 4 16 8 N 1018,4 57 0,0
11.08.2018 07:00:00 16,8 11,7 14,8 6 3 14 8 N 1018,1 60 0,0
11.08.2018 06:00:00 17,5 11,7 15,0 7 4 15 8 N 1018,0 60 0,0
11.08.2018 05:00:00 18,1 11,9 13,8 6 4 12 6 N 1018,1 60 0,0
11.08.2018 04:00:00 18,8 11,6 14,8 3 2 13 7 NE 1018,3 60 0,0
11.08.2018 03:00:00 17,9 14,0 14,0 5 3 8 4 NNW 1018,3 60 0,0
11.08.2018 02:00:00 19,8 14,2 13,9 0 0 6 4 N 1018,5 60 0,0
11.08.2018 01:00:00 22,1 13,7 17,6 3 2 12 7 N 1019,0 60 0,0

tt = temperature
td = dewpoint
tt 5cm = temperature 5cm
ff = wind speed
fx = gusts
dd = wind direction
ppp = reduced air pressure
vv = visibility
rr = precipitation

Next stations